Flag for U.S.A. Weather past 2 weeks in Escondido, California, U.S.A.

Now
66 °F

Clear.


Feels Like: 66 °F
Forecast: 66 / 88 °F
Wind: No wind

Location: Ramona Airport

Current Time: Jul 25, 2014 at 7:02:39 AM

Latest Report: Jul 25, 2014 at 5:53 AM


Visibility: 8 mi

Pressure: 29.85 "Hg

Humidity: 90%

Dew point: 63 °F

Location of EscondidoLocation

Historic Weather in Escondido — Graph

°F

Escondido temperature yesterday

Maximum temperature yesterday: 99 °F (at 12:53 PM)
Minimum temperature yesterday: 61 °F (at 5:53 AM)
Average temperature yesterday: 81 °F

Past Weeks' High & Low Weather Summary

 TemperatureHumidityPressure
High99 °F (Jul 24, 12:53 PM)100% (Jul 12, 5:53 AM)30.07 "Hg (Jul 12, 5:53 AM)
Low55 °F (Jul 22, 2:53 AM)18% (Jul 24, 5:53 PM)29.75 "Hg (Jul 24, 4:53 PM)
Average71 °F66%29.95 "Hg
* Reported Jul 10 5:53 AM — Jul 25 5:02 AM, Escondido, Weather by CustomWeather, © 2014

Note: Actual official high and low records may vary slightly from our data, if they occured in-between our weather recording intervals... More about our weather records

Advertising

Escondido weather history for previous 24 hours

 ConditionsComfort  
Time TempWeatherWind HumidityBarometerVisibility
5:02 AM
Jul 25
65 °FFog.No wind94%29.91 "Hg5 mi
4:53 AM65 °FFog.No wind94%29.85 "Hg5 mi
3:53 AM65 °FFog.8 mph94%29.84 "Hg5 mi
2:53 AM64 °FClear.3 mph75%29.83 "Hg10 mi
1:53 AM68 °FClear.5 mph76%29.85 "Hg10 mi
12:53 AM70 °FClear.No wind59%29.85 "Hg10 mi
11:53 PM
Jul 24
71 °FClear.No wind57%29.84 "Hg10 mi
10:53 PM75 °FClear.3 mph50%29.83 "Hg10 mi
9:53 PM76 °FClear.5 mph48%29.81 "Hg10 mi
8:53 PM78 °FClear.5 mph45%29.79 "Hg10 mi
7:53 PM83 °FSunny.8 mph38%29.77 "Hg10 mi
6:53 PM89 °FSunny.10 mph22%29.75 "Hg10 mi
5:53 PM93 °FSunny.10 mph18%29.75 "Hg10 mi
4:53 PM94 °FSunny.14 mph19%29.75 "Hg10 mi
3:53 PM97 °FSunny.13 mph22%29.76 "Hg10 mi
2:53 PM98 °FSunny.10 mph23%29.77 "Hg10 mi
1:53 PM99 °FSunny.13 mph22%29.78 "Hg10 mi
12:53 PM99 °FSunny.12 mph22%29.79 "Hg10 mi
11:53 AM96 °FSunny.10 mph24%29.80 "Hg10 mi
10:53 AM93 °FSunny.13 mph24%29.81 "Hg10 mi
9:53 AM91 °FSunny.3 mph21%29.83 "Hg10 mi
8:53 AM86 °FSunny.3 mph27%29.84 "Hg10 mi
7:53 AM76 °FSunny.No wind40%29.85 "Hg10 mi
Weather by CustomWeather, © 2014

See weather overviewHow to use our weather pages